Find Starlink 32424

NORAD ID: 61548 Int'l Des: 2024-184 Owner: SPXS Country: US Constellation: starlink operational
LEOCIRCULAR

当前视图

正在加载3D地球...

About Starlink 32424

Starlink 32424 (NORAD 61548) is a starlink constellation satellite (v2 mini) launched Oct 15, 2024 by SPXS of US. It operates in LEO, CIRCULAR orbit with a mass of 730.00 kg.

关于 Starlink 32424

正在加载描述...

即将过境

Passes for default location (London). Set your location on the main map for personalized predictions.

高度历史

Loading altitude history...

两行轨道根数

1 61548U 24184S 26170.56941535 -.00000682 00000-0 -90515-5 0 9990
2 61548 53.1610 260.1277 0001074 80.9270 279.1854 15.34393306 94113
Epoch: Jun 19, 2026 • Age: 47 hours

当前状态

高度 465.2 km
速度 7.64 km/s
星下点 37.18°N, 176°W
发射日期 Oct 15, 2024
运行时间 1.6 years
类型 internet

技术详情

分类 Payload
质量 730.00 kg
干质量 700.00 kg
总质量 730.00 kg
长度 0.30 m
直径 4.10 m
跨度 29.00 m
形状 Box + pan
制造商 SPXS
平台类型 Starlink V2M
阶段状态 In Orbit
所有者/国家 SPXS/US

Most Searched